CW4588 Seinajoki FI current weather conditions

sailwx.info

Wind from 243

Air temperature -1.1° C
Dewpoint -1.1° C

Last reported at 2019-Oct-13 23:00 UTC.
Time now 2019-Oct-13 23:33 UTC

Location: N 62°47' E 022°49'.
View on Google Maps.

See reports from other nearby stations

  
Tides and Currents Weather Stations Pressure Air Temp Water Temp Dewpoint Dewpoint Depression Visibility Wind Speed Wind Dir Waves Ship Positions
date/time (UTC)wind fromknots sea level pressurealtimeterstation pressurevisibilityair tempwater tempwave heightnotes
2019-Oct-13 23:00 243 -1.1
2019-Oct-13 22:50 243 -1.1
2019-Oct-13 22:40 243 -1.1
2019-Oct-13 22:30 243 -0.6
2019-Oct-13 22:20 243 -1.1
2019-Oct-13 22:10 243 -1.1
2019-Oct-13 22:00 243 -1.1
2019-Oct-13 21:50 243 -0.6
2019-Oct-13 21:40 243 -0.6
2019-Oct-13 21:30 243 -0.0
2019-Oct-13 21:20 243 -0.0
2019-Oct-13 21:10 243 0.6
2019-Oct-13 21:00 243 0.6
2019-Oct-13 20:50 243 1.1
2019-Oct-13 20:40 243 1.7
2019-Oct-13 20:30 243 1.7
2019-Oct-13 20:20 243 2.2
2019-Oct-13 20:10 243 2.2
2019-Oct-13 20:00 243 1.7
2019-Oct-13 19:50 239 1.7
2019-Oct-13 19:40 240 2.2
2019-Oct-13 19:30 240 2.8
2019-Oct-13 19:20 263 2.8
2019-Oct-13 19:10 263 3.3
2019-Oct-13 19:00 263 3.3
2019-Oct-13 18:50 263 3.3
2019-Oct-13 18:40 224 3.3
2019-Oct-13 18:30 261 3.3
2019-Oct-13 18:20 261 3.3
2019-Oct-13 18:10 254 3.3
2019-Oct-13 18:00 254 3.9
2019-Oct-13 17:50 254 3.9
2019-Oct-13 17:40 254 3.9
2019-Oct-13 17:30 253 3.9
2019-Oct-13 17:20 253 3.9
2019-Oct-13 17:10 253 3.9
2019-Oct-13 17:00 253 3.9
2019-Oct-13 16:50 298 3.9
2019-Oct-13 16:40 282 3.9
2019-Oct-13 16:30 282 3.9
2019-Oct-13 16:20 282 3.9
2019-Oct-13 16:10 282 3.9
2019-Oct-13 16:00 272 0 3.9
2019-Oct-13 15:50 254 4.4
2019-Oct-13 15:40 254 4.4
2019-Oct-13 15:30 226 4.4
2019-Oct-13 15:20 226 4.4
2019-Oct-13 15:10 227 4.4
2019-Oct-13 15:00 234 4.4
2019-Oct-13 14:50 234 4.4
2019-Oct-13 14:40 234 4.4
2019-Oct-13 14:30 234 4.4
2019-Oct-13 14:20 236 5.0
2019-Oct-13 14:10 236 5.0
2019-Oct-13 14:00 236 5.0
2019-Oct-13 13:50 239 0 5.0
2019-Oct-13 13:40 229 5.0
2019-Oct-13 13:30 234 5.0
2019-Oct-13 13:20 233 1 5.0
2019-Oct-13 13:10 220 5.0
2019-Oct-13 13:00 226 5.0
2019-Oct-13 12:50 253 5.0
2019-Oct-13 12:40 241 5.0
2019-Oct-13 12:30 236 0 5.0
2019-Oct-13 12:20 212 5.0
2019-Oct-13 12:10 313 5.0
2019-Oct-13 12:00 313 5.0
2019-Oct-13 11:50 313 0 5.0
2019-Oct-13 11:40 318 5.0
2019-Oct-13 11:30 318 5.0
2019-Oct-13 11:20 313 0 5.0
2019-Oct-13 11:10 309 5.0
2019-Oct-13 11:00 312 5.0
2019-Oct-13 10:50 313 4.4
2019-Oct-13 10:40 313 4.4
2019-Oct-13 10:30 313 4.4
2019-Oct-13 10:20 313 4.4
2019-Oct-13 10:10 313 4.4
2019-Oct-13 10:00 316 4.4
2019-Oct-13 09:50 315 3.9
2019-Oct-13 09:40 315 3.9
2019-Oct-13 09:30 320 3.9
2019-Oct-13 09:20 322 3.9
2019-Oct-13 09:10 320 0 3.9
2019-Oct-13 09:00 322 3.9
2019-Oct-13 08:50 322 3.9
2019-Oct-13 08:40 322 3.3
2019-Oct-13 08:30 322 3.3
2019-Oct-13 08:20 320 0 3.3
2019-Oct-13 08:10 360 2.8
2019-Oct-13 08:00 360 2.8
2019-Oct-13 07:50 360 2.8
2019-Oct-13 07:40 360 2.8
2019-Oct-13 07:30 051 2.2
2019-Oct-13 07:20 051 2.2
2019-Oct-13 07:10 056 2.2
2019-Oct-13 07:00 056 1.7
2019-Oct-13 06:50 056 1.7
2019-Oct-13 06:40 056 1.1
2019-Oct-13 06:30 056 1.1
2019-Oct-13 06:20 056 1.1
2019-Oct-13 06:10 056 1.1
2019-Oct-13 06:00 056 1.1
2019-Oct-13 05:50 056 1.1
2019-Oct-13 05:40 056 0.6
2019-Oct-13 05:30 056 0.6
2019-Oct-13 05:20 056 0.6
2019-Oct-13 05:10 056 1.1
2019-Oct-13 05:00 056 1.1
2019-Oct-13 04:50 056 1.1
2019-Oct-13 04:40 056 1.1
2019-Oct-13 04:30 056 1.1
2019-Oct-13 04:20 056 1.1
2019-Oct-13 04:10 056 1.1
2019-Oct-13 04:00 056 1.7
2019-Oct-13 03:50 056 1.7
2019-Oct-13 03:40 056 1.7
2019-Oct-13 03:30 056 1.7
2019-Oct-13 03:20 056 1.7
2019-Oct-13 03:10 056 1.7
2019-Oct-13 03:00 056 1.7
2019-Oct-13 02:50 056 1.7
2019-Oct-13 02:40 056 1.7
2019-Oct-13 02:30 056 1.7
2019-Oct-13 02:20 056 1.7
2019-Oct-13 02:10 056 1.7
2019-Oct-13 02:00 056 1.7
2019-Oct-13 01:50 056 1.7
2019-Oct-13 01:41 056 1.7
2019-Oct-13 01:30 056 1.7
2019-Oct-13 01:20 056 1.7
2019-Oct-13 01:10 030 1.7
2019-Oct-13 01:00 013 1.7
2019-Oct-13 00:50 013 2.2
2019-Oct-13 00:40 013 2.2
2019-Oct-13 00:30 024 2.2
2019-Oct-13 00:20 024 2.2
2019-Oct-13 00:10 023 2.2
2019-Oct-13 00:00 023 2.2
2019-Oct-12 23:50 023 2.2
2019-Oct-12 23:41 023 2.2
2019-Oct-12 23:30 023 2.2
2019-Oct-12 23:20 023 2.2
2019-Oct-12 23:11 023 2.2
2019-Oct-12 23:00 023 2.2
2019-Oct-12 22:50 023 2.2
2019-Oct-12 22:41 023 2.2
2019-Oct-12 22:30 023 2.8
2019-Oct-12 22:20 023 2.8
2019-Oct-12 22:10 023 2.8
2019-Oct-12 22:00 023 2.8
2019-Oct-12 21:51 023 2.8
2019-Oct-12 21:42 023 2.8
2019-Oct-12 21:31 023 2.8
2019-Oct-12 21:20 023 2.8
2019-Oct-12 21:10 023 2.8
2019-Oct-12 21:00 023 2.8
2019-Oct-12 20:50 023 2.8
2019-Oct-12 20:40 023 2.8
2019-Oct-12 20:30 023 2.8
2019-Oct-12 20:20 023 2.8
2019-Oct-12 20:10 023 2.8
2019-Oct-12 20:00 023 2.8
2019-Oct-12 19:50 023 2.8
2019-Oct-12 19:40 023 2.8
2019-Oct-12 19:30 023 2.8
2019-Oct-12 19:20 023 2.8
2019-Oct-12 19:10 023 2.8
2019-Oct-12 19:00 023 2.8
2019-Oct-12 18:50 023 2.8
2019-Oct-12 18:40 001 2.8
2019-Oct-12 18:30 010 2.8
2019-Oct-12 18:20 010 2.8
2019-Oct-12 18:10 010 3.3
2019-Oct-12 18:00 016 3.3
2019-Oct-12 17:50 016 3.3
2019-Oct-12 17:40 017 3.3
2019-Oct-12 17:30 017 3.3
2019-Oct-12 17:20 017 3.3
2019-Oct-12 17:10 017 3.3
2019-Oct-12 17:00 017 3.3
2019-Oct-12 16:50 017 3.3
2019-Oct-12 16:40 023 3.3
2019-Oct-12 16:30 023 3.3
2019-Oct-12 16:20 014 0 3.3
2019-Oct-12 16:10 356 0 3.9
2019-Oct-12 16:00 353 1 3.9
2019-Oct-12 15:50 318 3.9
2019-Oct-12 15:40 318 3.9
2019-Oct-12 15:30 316 3.9
2019-Oct-12 15:20 316 3.9
2019-Oct-12 15:10 315 4.4
2019-Oct-12 15:00 315 4.4
2019-Oct-12 14:50 315 4.4
2019-Oct-12 14:40 315 4.4
2019-Oct-12 14:30 343 0 4.4
2019-Oct-12 14:20 344 4.4
2019-Oct-12 14:10 335 4.4
2019-Oct-12 14:00 344 4.4
2019-Oct-12 13:50 344 4.4
2019-Oct-12 13:40 344 4.4
2019-Oct-12 13:30 017 4.4
2019-Oct-12 13:20 359 4.4
2019-Oct-12 13:10 343 1 4.4
2019-Oct-12 13:00 320 2 4.4
2019-Oct-12 12:50 360 0 4.4
2019-Oct-12 12:40 017 1 4.4
2019-Oct-12 12:30 040 1 4.4
2019-Oct-12 12:20 360 0 4.4
2019-Oct-12 12:10 354 1 4.4
2019-Oct-12 12:00 360 2 4.4
2019-Oct-12 11:50 360 2 4.4
2019-Oct-12 11:40 354 3 4.4
2019-Oct-12 11:30 360 0 4.4
2019-Oct-12 11:20 342 3 4.4
2019-Oct-12 11:10 359 4 4.4
2019-Oct-12 11:00 001 0 4.4
2019-Oct-12 10:50 352 3 4.4
2019-Oct-12 10:40 354 1 5.0
2019-Oct-12 10:30 344 0 5.0
2019-Oct-12 10:20 360 1 5.0
2019-Oct-12 10:10 354 2 5.0
2019-Oct-12 10:00 356 1 5.0
2019-Oct-12 09:50 352 3 5.0
2019-Oct-12 09:40 360 1 5.6
2019-Oct-12 09:30 342 1 5.6
2019-Oct-12 09:20 337 3 5.6
2019-Oct-12 09:10 360 3 5.6
2019-Oct-12 09:00 357 1 5.6
2019-Oct-12 08:50 352 2 5.6
2019-Oct-12 08:40 343 2 5.6
2019-Oct-12 08:30 003 2 5.6
2019-Oct-12 08:20 360 2 5.6
2019-Oct-12 08:10 360 4 5.6
2019-Oct-12 08:00 020 1 5.6
2019-Oct-12 07:50 001 0 5.6
2019-Oct-12 07:40 360 0 5.6
2019-Oct-12 07:30 339 0 5.6
2019-Oct-12 07:20 339 0 6.1
2019-Oct-12 07:10 031 6.1
2019-Oct-12 07:00 120 6.1
2019-Oct-12 06:50 120 6.1
2019-Oct-12 06:40 121 6.1
2019-Oct-12 06:30 123 6.1
2019-Oct-12 06:20 152 6.1
2019-Oct-12 06:10 152 6.1
2019-Oct-12 06:00 152 6.1
2019-Oct-12 05:50 152 6.1
2019-Oct-12 05:40 164 6.1
2019-Oct-12 05:30 182 6.1
2019-Oct-12 05:20 182 6.1
2019-Oct-12 05:10 182 6.1
2019-Oct-12 05:00 182 6.1
2019-Oct-12 04:50 182 6.1
2019-Oct-12 04:40 182 6.1
2019-Oct-12 04:30 182 6.1
2019-Oct-12 04:20 182 6.1
2019-Oct-12 04:10 182 6.1
2019-Oct-12 04:00 182 6.1
2019-Oct-12 03:50 182 6.1
2019-Oct-12 03:40 182 6.1
2019-Oct-12 03:30 182 6.1
2019-Oct-12 03:20 182 6.1
2019-Oct-12 03:10 182 6.1
2019-Oct-12 03:00 182 6.1
2019-Oct-12 02:50 182 6.1
2019-Oct-12 02:40 182 6.1
2019-Oct-12 02:30 182 6.1
2019-Oct-12 02:20 182 6.1
2019-Oct-12 02:10 182 6.1
2019-Oct-12 02:00 182 6.1
2019-Oct-12 01:50 182 6.1
2019-Oct-12 01:40 182 6.1
2019-Oct-12 01:30 182 6.1
2019-Oct-12 01:20 182 6.7
2019-Oct-12 01:10 182 6.7
2019-Oct-12 01:00 182 6.7
2019-Oct-12 00:50 182 6.1
2019-Oct-12 00:40 182 6.1
2019-Oct-12 00:30 182 6.1
2019-Oct-12 00:20 182 6.1
2019-Oct-12 00:10 182 6.1
2019-Oct-12 00:00 182 6.1
2019-Oct-11 23:50 182 6.1
2019-Oct-11 23:40 182 6.1
2019-Oct-11 23:30 182 6.1
2019-Oct-11 23:20 182 6.1
2019-Oct-11 23:10 182 6.1
2019-Oct-11 23:00 182 6.1